Weather History for Logrono, Spain

Change the Weather History Date:

Tuesday, October 8, 2013

  Actual Average Record
Temperature  
Mean Temperature 58 °F -  
Max Temperature 71 °F - - ()
Min Temperature 44 °F - - ()
Degree Days  
Heating Degree Days 8    
Growing Degree Days 8 (Base 50)    
Moisture  
Dew Point 50 °F    
Average Humidity 77    
Maximum Humidity 100    
Minimum Humidity 40    
Precipitation  
Precipitation 0.00 in - - ()
Sea Level Pressure  
Sea Level Pressure 30.25 in    
Wind  
Wind Speed 3 mph ()    
Max Wind Speed 10 mph    
Max Gust Speed -    
Visibility 7.0 miles    
Events      
T = Trace of Precipitation, MM = Missing Value Source: Averaged Metar Reports

Daily Weather History Graph

Daily Weather History Graph

Search for Another Location

Airport:

Trip Planner

Search our weather history database for the weather conditions in past years. The results will help you decide how hot, cold, wet, or windy it might be!

Date:

Astronomy

Oct. 08, 2013 Rise Set
Actual Time 8:14 AM CEST 7:38 PM CEST
Civil Twilight 7:46 AM CEST 8:06 PM CEST
Nautical Twilight 7:13 AM CEST 8:39 PM CEST
Astronomical Twilight 6:40 AM CEST 9:11 PM CEST
Moon 11:57 AM CEST (10/8) 9:57 PM CEST (10/8)
Length of Visible Light 12h 20m
Length of Day
11h 24m
Waxing Crescent, 14% of the Moon is Illuminated
Oct 8
Waxing Crescent
Oct 12
First Quarter
Oct 19
Full
Oct 27
Last Quarter
Nov 3
New

Hourly Weather History & Observations

Time (CEST) Temp. Dew Point Humidity Pressure Visibility Wind Dir Wind Speed Gust Speed Precip Events Conditions
12:00 AM 51.8 °F 51.8 °F 100% 30.24 in - Variable 1.2 mph - N/A   Clear
1:00 AM 51.8 °F 50.0 °F 94% 30.24 in - Variable 1.2 mph - N/A   Clear
2:00 AM 51 °F 47 °F 82% 30.27 in 9 mi West 2.3 mph - -  
2:00 AM 51.8 °F 51.8 °F 100% 30.24 in - Variable 1.2 mph - N/A   Clear
3:00 AM 50.0 °F 48.2 °F 94% 30.27 in - Calm Calm - N/A   Clear
4:00 AM 48.2 °F 48.2 °F 100% 30.24 in - Calm Calm - N/A   Clear
5:00 AM 46.4 °F 46.4 °F 100% 30.24 in - Variable 2.3 mph - N/A   Clear
6:00 AM 48.2 °F 48.2 °F 100% 30.24 in - Variable 1.2 mph - N/A   Clear
7:00 AM 44.6 °F 44.6 °F 100% 30.24 in - Variable 1.2 mph - N/A   Clear
8:00 AM 44.6 °F 44.6 °F 100% 30.24 in 5.6 mi Variable 2.3 mph - N/A   Unknown
9:00 AM 48.2 °F 48.2 °F 100% 30.27 in 6.2 mi West 4.6 mph - N/A   Partly Cloudy
10:00 AM 51.8 °F 50.0 °F 94% 30.27 in 6.2 mi West 6.9 mph - N/A   Partly Cloudy
11:00 AM 57.2 °F 51.8 °F 82% 30.27 in 6.2 mi West 10.4 mph - N/A   Partly Cloudy
12:00 PM 62.6 °F 51.8 °F 68% 30.27 in 6.2 mi West 9.2 mph - N/A   Partly Cloudy
1:00 PM 66.2 °F 51.8 °F 60% 30.27 in 6.2 mi West 9.2 mph - N/A   Partly Cloudy
2:00 PM 66 °F 47 °F 40% 30.24 in 25 mi WSW 8.1 mph - -   Scattered Clouds
2:00 PM 68.0 °F 51.8 °F 56% 30.27 in 6.2 mi West 9.2 mph - N/A   Partly Cloudy
3:00 PM 69.8 °F 51.8 °F 53% 30.24 in 6.2 mi West 9.2 mph - N/A   Partly Cloudy
4:00 PM 69.8 °F 51.8 °F 53% 30.21 in 6.2 mi WSW 8.1 mph - N/A   Partly Cloudy
5:00 PM 73.4 °F 51.8 °F 47% 30.21 in 6.2 mi West 9.2 mph - N/A   Partly Cloudy
6:00 PM 69.8 °F 51.8 °F 53% 30.21 in 6.2 mi NW 4.6 mph - N/A   Partly Cloudy
7:00 PM 68.0 °F 53.6 °F 60% 30.24 in 6.2 mi Variable 3.5 mph - N/A   Partly Cloudy
8:00 PM 62 °F 47 °F 48% 30.25 in 19 mi West 3.5 mph - -   Partly Cloudy
8:00 PM 62.6 °F 51.8 °F 68% 30.24 in 6.2 mi NW 5.8 mph - N/A   Scattered Clouds
9:00 PM 62.6 °F 51.8 °F 68% 30.27 in 6.2 mi Variable 1.2 mph - N/A   Mostly Cloudy
10:00 PM 59.0 °F 51.8 °F 77% 30.27 in 6.2 mi West 3.5 mph - N/A   Scattered Clouds
11:00 PM 57.2 °F 51.8 °F 82% 30.30 in 6.2 mi West 5.8 mph - N/A   Scattered Clouds